This is the latest recevied weather packets stored in our database for station/object DC4AT. If no packets are shown the sender has not sent any weather packets the latest 10 day(s).
| Time | Temp. | Humidity | Pressure | Rain* | Wind** | Luminosity | Snow |
|---|---|---|---|---|---|---|---|
| 1777835019 | 19.44° C | 50% | 1011.2 hPa | 0 mm | - | 0 W/m² | - |
| 1777834419 | 19.44° C | 49% | 1011 hPa | 0 mm | - | 0 W/m² | - |
| 1777833819 | 19.44° C | 47% | 1011 hPa | 0 mm | - | 0 W/m² | - |
| 1777833219 | 19.44° C | 46% | 1010.9 hPa | 0 mm | - | 0 W/m² | - |
| 1777832619 | 20° C | 46% | 1010.9 hPa | 0 mm | - | 7 W/m² | - |
| 1777832019 | 20° C | 45% | 1010.8 hPa | 0 mm | - | 14 W/m² | - |
| 1777831419 | 20° C | 44% | 1010.7 hPa | 0 mm | - | 21 W/m² | - |
| 1777830819 | 20° C | 43% | 1010.6 hPa | 0 mm | - | 30 W/m² | - |
| 1777830219 | 20.56° C | 42% | 1010.7 hPa | 0 mm | - | 39 W/m² | - |
| 1777829619 | 20.56° C | 42% | 1010.6 hPa | 0 mm | - | 47 W/m² | - |
| 1777829019 | 20.56° C | 42% | 1010.6 hPa | 0 mm | - | 51 W/m² | - |
| 1777828419 | 21.11° C | 41% | 1010.6 hPa | 0 mm | - | 58 W/m² | - |
| 1777827819 | 21.11° C | 41% | 1010.5 hPa | 0 mm | - | 63 W/m² | - |
| 1777827219 | 21.11° C | 40% | 1010.6 hPa | 0 mm | - | 83 W/m² | - |
| 1777826619 | 21.67° C | 42% | 1010.6 hPa | 0 mm | - | 84 W/m² | - |
| 1777826019 | 21.67° C | 38% | 1010.6 hPa | 0 mm | - | 98 W/m² | - |
| 1777825419 | 21.67° C | 39% | 1010.6 hPa | 0 mm | - | 86 W/m² | - |
| 1777824819 | 21.67° C | 38% | 1010.7 hPa | 0 mm | - | 72 W/m² | - |
| 1777824219 | 21.67° C | 43% | 1010.8 hPa | 0 mm | - | 81 W/m² | - |
| 1777823619 | 22.22° C | 42% | 1010.8 hPa | 0 mm | - | 121 W/m² | - |
| 1777823019 | 22.22° C | 41% | 1010.8 hPa | 0 mm | - | 123 W/m² | - |
| 1777822419 | 22.22° C | 40% | 1010.8 hPa | 0 mm | - | 176 W/m² | - |
| 1777821819 | 22.22° C | 40% | 1010.9 hPa | 0 mm | - | 190 W/m² | - |
| 1777821219 | 22.78° C | 41% | 1010.9 hPa | 0 mm | - | 276 W/m² | - |
| 1777820619 | 22.78° C | 39% | 1010.9 hPa | 0 mm | - | 355 W/m² | - |
* Rain latest hour (hover to see other rain measurements)
** Current wind speed in m/s (hover to see current wind gust speed)